Doha, Qatar

5:11 PM +03 on September 19, 2017 (GMT +0300)
Doha International

Weather History for OTBD - January, 2013

Change the Weather History Date:

Saturday, January 5, 2013

  Actual Average Record
Temperature  
Mean Temperature 68 °F -  
Max Temperature 75 °F 71 °F 79 °F (2015)
Min Temperature 60 °F 55 °F 53 °F (2007)
Cooling Degree Days 2    
Growing Degree Days 18 (Base 50)    
Moisture  
Dew Point 52 °F    
Average Humidity 58    
Maximum Humidity 82    
Minimum Humidity 34    
Precipitation  
Precipitation 0.00 in 0.02 in - ()
Sea Level Pressure  
Sea Level Pressure 30.02 in    
Wind  
Wind Speed 4 mph ()    
Max Wind Speed 9 mph    
Max Gust Speed -    
Visibility 6.2 miles    
Events      
Averages and records for this station are not official NWS values.
T = Trace of Precipitation, MM = Missing Value Source: Averaged Metar Reports

Daily Weather History Graph

Daily Weather History Graph

Search for Another Location

Airport or City:

Trip Planner

Search our weather history database for the weather conditions in past years. The results will help you decide how hot, cold, wet, or windy it might be!

Date:

Astronomy

Jan. 05, 2013 Rise Set
Actual Time 6:20 AM +03 4:58 PM +03
Civil Twilight 5:55 AM +03 5:23 PM +03
Nautical Twilight 5:26 AM +03 5:51 PM +03
Astronomical Twilight 4:59 AM +03 6:19 PM +03
Moon No Moon Rise 11:13 AM +03 (1/5)
Length of Visible Light 11h 27m
Length of Day
10h 37m
Waning Gibbous, 48% of the Moon is Illuminated
Jan 5
Waning Gibbous
Jan 11
New
Jan 19
First Quarter
Jan 27
Full
Feb 3
Last Quarter

Hourly Weather History & Observations

Time (+03) Temp. Dew Point Humidity Pressure Visibility Wind Dir Wind Speed Gust Speed Precip Events Conditions
12:00 AM 64.4 °F 51.8 °F 64% 30.06 in - NW 4.6 mph - N/A   Clear
12:30 AM 64.4 °F 51.8 °F 64% 30.06 in - WNW 3.5 mph - N/A   Clear
1:00 AM 64.4 °F 51.8 °F 64% 30.06 in - NW 5.8 mph - N/A   Clear
1:30 AM 64.4 °F 51.8 °F 64% 30.06 in - NW 5.8 mph - N/A   Clear
2:00 AM 64.4 °F 51.8 °F 64% 30.06 in - NW 5.8 mph - N/A   Clear
2:30 AM 64.4 °F 51.8 °F 64% 30.06 in - NW 4.6 mph - N/A   Clear
3:00 AM 63 °F 53 °F 60% 30.06 in 7 mi NW 4.6 mph - -  
3:00 AM 62.6 °F 51.8 °F 68% 30.04 in - NW 4.6 mph - N/A   Clear
3:30 AM 62.6 °F 53.6 °F 72% 30.04 in - NW 5.8 mph - N/A   Clear
4:00 AM 62.6 °F 53.6 °F 72% 30.04 in - NW 4.6 mph - N/A   Clear
4:30 AM 62.6 °F 53.6 °F 72% 30.06 in - WNW 3.5 mph - N/A   Clear
5:00 AM 62.6 °F 53.6 °F 72% 30.04 in - Variable 1.2 mph - N/A   Clear
5:30 AM 60.8 °F 55.4 °F 82% 30.04 in - WSW 4.6 mph - N/A   Clear
6:00 AM 60.8 °F 53.6 °F 77% 30.06 in - Variable 2.3 mph - N/A   Clear
6:30 AM 60.8 °F 51.8 °F 72% 30.06 in 5.0 mi WSW 3.5 mph - N/A   Unknown
7:00 AM 60.8 °F 53.6 °F 77% 30.06 in 5.6 mi West 3.5 mph - N/A   Unknown
7:30 AM 62.6 °F 53.6 °F 72% 30.06 in 5.6 mi West 3.5 mph - N/A   Unknown
8:00 AM 64.4 °F 53.6 °F 68% 30.09 in 5.6 mi Variable 2.3 mph - N/A   Unknown
8:30 AM 66.2 °F 53.6 °F 64% 30.09 in 5.6 mi West 3.5 mph - N/A   Unknown
9:00 AM 67 °F 51 °F 47% 30.10 in 6 mi 2.3 mph - -  
9:00 AM 66.2 °F 51.8 °F 60% 30.09 in - Variable 2.3 mph - N/A   Clear
9:30 AM 68.0 °F 50.0 °F 52% 30.09 in - Variable 2.3 mph - N/A   Clear
10:00 AM 71.6 °F 48.2 °F 43% 30.06 in - Variable 2.3 mph - N/A   Clear
10:30 AM 73.4 °F 44.6 °F 36% 30.06 in - SW 4.6 mph - N/A   Clear
11:00 AM 73.4 °F 46.4 °F 38% 30.04 in - Calm Calm - N/A   Clear
11:30 AM 73.4 °F 46.4 °F 38% 30.04 in - Variable 2.3 mph - N/A   Clear
12:00 PM 75.2 °F 44.6 °F 34% 30.01 in - Variable 2.3 mph - N/A   Clear
12:30 PM 71.6 °F 50.0 °F 46% 30.01 in - East 5.8 mph - N/A   Clear
1:00 PM 73.4 °F 50.0 °F 44% 30.01 in - East 5.8 mph - N/A   Clear
2:00 PM 71.6 °F 50.0 °F 46% 29.95 in - SW 6.9 mph - N/A   Clear
2:30 PM 71.6 °F 48.2 °F 43% 29.95 in - ESE 8.1 mph - N/A   Clear
3:00 PM 71 °F 49 °F 34% 29.97 in 9 mi East 8.1 mph - -   Clear
3:00 PM 71.6 °F 48.2 °F 43% 29.95 in - East 8.1 mph - N/A   Clear
3:30 PM 71.6 °F 50.0 °F 46% 29.95 in - East 9.2 mph - N/A   Clear
4:00 PM 69.8 °F 50.0 °F 49% 29.95 in - East 9.2 mph - N/A   Clear
4:30 PM 69.8 °F 50.0 °F 49% 29.95 in - ESE 8.1 mph - N/A   Clear
5:00 PM 68.0 °F 51.8 °F 56% 29.95 in - East 6.9 mph - N/A   Clear
5:30 PM 68.0 °F 51.8 °F 56% 29.95 in - East 5.8 mph - N/A   Clear
6:00 PM 68.0 °F 51.8 °F 56% 29.95 in - ESE 5.8 mph - N/A   Clear
6:30 PM 68.0 °F 51.8 °F 56% 29.98 in - ESE 6.9 mph - N/A   Clear
7:00 PM 68.0 °F 51.8 °F 56% 29.98 in - SE 6.9 mph - N/A   Clear
7:30 PM 68.0 °F 51.8 °F 56% 29.98 in - SE 6.9 mph - N/A   Clear
8:00 PM 68.0 °F 51.8 °F 56% 29.98 in - ESE 5.8 mph - N/A   Clear
8:30 PM 66.2 °F 53.6 °F 64% 29.98 in - ESE 5.8 mph - N/A   Clear
9:00 PM 67 °F 54 °F 54% 29.98 in 6 mi ESE 5.8 mph - -  
9:00 PM 66.2 °F 53.6 °F 64% 29.98 in - ESE 5.8 mph - N/A   Clear
10:00 PM 68.0 °F 55.4 °F 64% 29.95 in - SE 8.1 mph - N/A   Clear
10:30 PM 68.0 °F 55.4 °F 64% 29.95 in - SE 9.2 mph - N/A   Clear
11:00 PM 68.0 °F 57.2 °F 68% 29.95 in - SE 6.9 mph - N/A   Clear